Regional Weather Roundup
Issued by NWS Bismarck, ND

Home | Current Version | Previous Version | Text Only | Print | Product List | Glossary On
Versions: 1 2 3 4 5 6 7 8 9 10 11 12 13 14 15 16 17 18 19 20 21 22 23 24 25 26 27 28 29 30 31 32 33 34 35 36 37 38 39 40 41 42 43 44 45 46 47 48 49 50
000
ASUS43 KBIS 222110
RWRBIS

NWR BROADCAST TEXT
NATIONAL WEATHER SERVICE BISMARCK ND
300 PM CST WED FEB 22 2017

NOTE: "FAIR" INDICATES FEW OR NO CLOUDS BELOW 12,000 FEET WITH NO
SIGNIFICANT WEATHER AND/OR OBSTRUCTIONS TO VISIBILITY.


CITY           SKY/WX    TMP DP  RH WIND       PRES   REMARKS
WILLISTON      CLOUDY    33  24  69 N8        29.93R
MINOT          CLOUDY    34  26  72 N9        29.88R
MINOT AFB      FAIR      33  25  73 N7        29.88R
BISMARCK       LGT SNOW  35  32  88 N17       29.86R FOG
DICKINSON      LGT SNOW  30  27  88 N10       29.85R FOG
GARRISON         N/A     32  28  85 N7        29.87R
HETTINGER ARPT CLOUDY    32  28  85 N15       29.85R
JAMESTOWN      LGT SNOW  31  29  92 N15       29.80R FOG
CARRINGTON     CLOUDY    32  28  86 N16       29.85R
HAZEN          CLOUDY   N/A N/A N/A N14       29.89S
MANDAN         LGT SNOW  32  32 100 NE17      29.85R
RUGBY            N/A     32  28  86 N12       29.86S
STANLEY        FAIR      32  27  80 N9        29.91R
TIOGA          FAIR      32  27  80 N10       29.91S
WATFORD CITY   CLOUDY    30  27  86 N7        29.92R
$$

CITY           SKY/WX    TMP DP  RH WIND       PRES   REMARKS
GRAND FORKS    CLOUDY    35  24  64 N20       29.81R
GRAND FORKS AF CLOUDY    34  28  79 N15       29.82R
DEVILS LAKE    CLOUDY    31  27  85 N15       29.85R
FARGO          LGT SNOW  34  33  96 N21       29.75R FOG
CAVALIER         N/A     36  28  75 N13       29.84R
GRAFTON        CLOUDY    34  30  86 N17G23    29.83S
GWINNER        CLOUDY    34  34 100 N17G25    29.75R VSB 1/2
ROLLA          MOCLDY    30  27  86 N10       29.86R
$$

CITY           SKY/WX    TMP DP  RH WIND       PRES   REMARKS
ABERDEEN       CLOUDY    36  32  85 N16       29.76R
MOBRIDGE       MIX PCPN  37  32  82 N15       29.76R
BUFFALO          N/A     35  30  82 N15       29.78R
RAPID CITY     FAIR      56  17  21 NW24G32   29.74S
GLASGOW        CLOUDY    31  28  89 S7        29.95S
SIDNEY         CLOUDY    31  27  85 N10       29.94R
WOLF POINT     CLOUDY    35  24  64 NE3       29.96S
GLENDIVE       MIX PCPN  30  27  88 N9        29.92S
MILES CITY     CLOUDY    35  34  96 N7        29.90S
BAKER          CLOUDY    32  31  96 N12       29.88S
$$

CITY           SKY/WX    TMP DP  RH WIND       PRES   REMARKS
BILLINGS       PTSUNNY   35  33  92 E7        29.86F
GREAT FALLS    CLOUDY    37  25  61 N10       29.89S
REGINA         PTSUNNY   36  28  75 W12       29.92R
ESTEVAN        CLOUDY    32  28  86 NW9       29.91S
$$





USA.gov is the U.S. government's official web portal to all federal, state and local government web resources and services.